Location: Holbach
(51.5399°N, 10.6036°E)
Time: 10:15:10
(UTC+00:00)

Cosmos 1092 Rocket - Pass Details

Date: 25 June 2021
Orbit: 955 x 994 km, 82.9° (Epoch: 28 July)

Event Time Altitude Azimuth Distance (km) Brightness Sun altitude
Exits shadow 22:27:35 - 118° (ESE) 3,162 6.3 -14.2°
Reaches altitude 10° 22:29:47 10° 102° (ESE) 2,688 6.1 -14.3°
Maximum altitude 22:32:35 14° 74° (ENE) 2,443 6.1 -14.4°
Drops below altitude 10° 22:35:24 10° 47° (NE) 2,702 6.8 -14.4°
Sets 22:39:18 0° 23° (NNE) 3,661 8.0 -14.6°
